Mitchell, SD

6:56 AM CDT on March 27, 2017 (GMT -0500)
Mitchell Municipal

Weather History for KMHE - March, 2014

Change the Weather History Date:

Saturday, March 1, 2014

  Actual Average Record
Temperature  
Mean Temperature -1 °F 28 °F  
Max Temperature 8 °F 38 °F 75 °F (1992)
Min Temperature -10 °F 19 °F -20 °F (1962)
Degree Days  
Heating Degree Days 66 37  
Month to date heating degree days 66 37  
Since 1 July heating degree days 6016 5559  
Cooling Degree Days 0 0  
Month to date cooling degree days 0 0  
Year to date cooling degree days 0 0  
Moisture  
Dew Point -8 °F    
Average Humidity 74    
Maximum Humidity 83    
Minimum Humidity 64    
Precipitation  
Precipitation 0.18 in 0.02 in 0.40 in (1958)
Month to date precipitation 0.18 0.02  
Year to date precipitation 0.68 0.58  
Snow  
Snow 2.50 in - 5.00 in (1989)
Month to date snowfall 2.5  
Since 1 July snowfall 24.7  
Snow Depth 1.00 in    
Sea Level Pressure  
Sea Level Pressure 30.52 in    
Wind  
Wind Speed 15 mph (North)    
Max Wind Speed 21 mph    
Max Gust Speed 24 mph    
Visibility 4 miles    
Events Snow    
T = Trace of Precipitation, MM = Missing Value Source: NWS Daily Summary

Daily Weather History Graph

Daily Weather History Graph

Search for Another Location

Airport or City:

Trip Planner

Search our weather history database for the weather conditions in past years. The results will help you decide how hot, cold, wet, or windy it might be!

Date:

Astronomy

Mar. 01, 2014 Rise Set
Actual Time 7:08 AM CST 6:20 PM CST
Civil Twilight 6:39 AM CST 6:49 PM CST
Nautical Twilight 6:06 AM CST 7:22 PM CST
Astronomical Twilight 5:33 AM CST 7:56 PM CST
Moon 7:01 AM CST (3/1) 7:12 PM CST (3/1)
Length of Visible Light 12h 09m
Length of Day
11h 12m
New Moon, 0% of the Moon is Illuminated
Mar 1
New Moon
Mar 8
First Quarter
Mar 16
Full
Mar 23
Last Quarter
Mar 30
New

Hourly Weather History & Observations

Time (CST) Temp. Windchill Dew Point Humidity Pressure Visibility Wind Dir Wind Speed Gust Speed Precip Events Conditions
12:53 AM 7.0 °F -11.6 °F -0.9 °F 70% 30.40 in 10.0 mi North 17.3 mph - 0.00 in   Overcast
1:53 AM 6.1 °F -10.9 °F -0.0 °F 76% 30.40 in 6.0 mi North 13.8 mph - 0.00 in   Haze
2:07 AM 6.1 °F -10.2 °F 1.0 °F 80% 30.32 in 5.0 mi North 12.7 mph - 0.00 in   Haze
2:21 AM 6.1 °F -12.2 °F -0.9 °F 73% 30.32 in 10.0 mi NNE 16.1 mph - 0.00 in   Overcast
2:28 AM 6.1 °F -12.8 °F -0.9 °F 73% 30.31 in 10.0 mi North 17.3 mph - 0.00 in   Overcast
2:53 AM 5.0 °F -12.3 °F -0.9 °F 76% 30.40 in 10.0 mi North 13.8 mph - 0.00 in   Overcast
3:53 AM 3.9 °F -15.6 °F -2.9 °F 73% 30.42 in 10.0 mi North 17.3 mph - N/A   Overcast
4:53 AM 3.0 °F -14.1 °F -2.9 °F 76% 30.46 in 7.0 mi NNE 12.7 mph - 0.00 in Snow Light Snow
5:53 AM 1.9 °F -16.2 °F -4.0 °F 76% 30.47 in 3.0 mi North 13.8 mph - 0.00 in Snow Light Snow
6:17 AM 1.9 °F -15.5 °F -2.9 °F 80% 30.39 in 2.5 mi North 12.7 mph - 0.00 in Snow Light Snow
6:27 AM 1.9 °F -16.2 °F -2.9 °F 80% 30.39 in 3.0 mi North 13.8 mph - 0.00 in Snow Light Snow
6:36 AM 1.9 °F -16.9 °F -4.0 °F 76% 30.39 in 2.5 mi North 15.0 mph - 0.00 in Snow Light Snow
6:53 AM 1.0 °F -16.6 °F -4.0 °F 79% 30.50 in 1.8 mi North 12.7 mph - 0.00 in Snow Light Snow
7:16 AM 1.0 °F -19.9 °F -4.0 °F 79% 30.41 in 2.0 mi North 18.4 mph - 0.00 in Snow Light Snow
7:38 AM 1.0 °F -17.3 °F -4.0 °F 79% 30.43 in 1.8 mi North 13.8 mph - 0.00 in Snow Light Snow
7:53 AM 1.0 °F -17.3 °F -4.0 °F 79% 30.53 in 1.8 mi North 13.8 mph - 0.00 in Snow Light Snow
8:24 AM -0.0 °F -18.7 °F -5.1 °F 79% 30.47 in 2.0 mi North 13.8 mph - 0.00 in Snow Light Snow
8:35 AM -0.0 °F -18.0 °F -6.0 °F 76% 30.48 in 3.0 mi North 12.7 mph - 0.00 in Snow Light Snow
8:46 AM -0.0 °F -19.4 °F -6.0 °F 76% 30.48 in 3.0 mi North 15.0 mph - 0.00 in Snow Light Snow
8:53 AM -0.0 °F -19.4 °F -6.0 °F 76% 30.58 in 2.5 mi North 15.0 mph - 0.00 in Snow Light Snow
9:02 AM -0.0 °F -19.4 °F -6.0 °F 76% 30.47 in 2.0 mi North 15.0 mph - 0.00 in Snow Light Snow
9:51 AM -0.4 °F -20.5 °F -7.6 °F 72% 30.49 in 3.0 mi North 16.1 mph - 0.00 in Snow Light Snow
9:53 AM -0.0 °F -20.1 °F -7.1 °F 72% 30.59 in 3.0 mi North 16.1 mph - 0.00 in Snow Light Snow
10:29 AM -0.0 °F -20.1 °F -7.1 °F 72% 30.51 in 2.5 mi North 16.1 mph - 0.00 in Snow Light Snow
10:34 AM -0.0 °F -20.1 °F -7.1 °F 72% 30.51 in 4.0 mi North 16.1 mph - 0.00 in Snow Light Snow
10:53 AM -0.0 °F -20.7 °F -7.1 °F 72% 30.61 in 2.0 mi North 17.3 mph - 0.00 in Snow Light Snow
11:02 AM -0.0 °F -20.7 °F -7.1 °F 72% 30.51 in 1.2 mi North 17.3 mph - 0.00 in Snow Light Snow
11:16 AM -0.0 °F -20.7 °F -7.1 °F 72% 30.52 in 1.5 mi North 17.3 mph - 0.00 in Snow Light Snow
11:53 AM -0.9 °F -22.4 °F -8.0 °F 72% 30.62 in 1.8 mi North 18.4 mph - 0.00 in Snow Light Snow
12:25 PM -2.0 °F -23.9 °F -9.0 °F 72% 30.52 in 3.0 mi North 18.4 mph - 0.00 in Snow Light Snow
12:34 PM -2.0 °F -23.3 °F -11.0 °F 66% 30.50 in 6.0 mi North 17.3 mph - 0.00 in Snow Light Snow
12:53 PM -2.0 °F -21.9 °F -9.9 °F 69% 30.62 in 10.0 mi North 15.0 mph - 0.00 in   Overcast
1:19 PM -2.0 °F -21.9 °F -9.9 °F 69% 30.52 in 1.8 mi North 15.0 mph - 0.00 in Snow Light Snow
1:28 PM -2.0 °F -21.2 °F -9.0 °F 72% 30.52 in 1.2 mi North 13.8 mph - 0.00 in Snow Light Snow
1:40 PM -2.0 °F -21.9 °F -8.0 °F 76% 30.49 in 0.8 mi North 15.0 mph - 0.00 in Snow Light Snow
1:53 PM -2.9 °F -23.8 °F -9.0 °F 75% 30.60 in 0.5 mi North 16.1 mph - 0.00 in Snow Snow
2:11 PM -2.0 °F -20.5 °F -9.0 °F 72% 30.49 in 1.2 mi North 12.7 mph - 0.00 in Snow Light Snow
2:20 PM -2.0 °F -20.5 °F -8.0 °F 76% 30.50 in 1.8 mi North 12.7 mph - 0.00 in Snow Light Snow
2:28 PM -2.0 °F -19.6 °F -9.0 °F 72% 30.50 in 2.5 mi North 11.5 mph - 0.00 in Snow Light Snow
2:35 PM -2.0 °F -20.5 °F -9.0 °F 72% 30.51 in 5.0 mi North 12.7 mph - 0.00 in Snow Light Snow
2:53 PM -2.0 °F -20.5 °F -9.0 °F 72% 30.63 in 4.0 mi North 12.7 mph - 0.00 in Snow Light Snow
3:02 PM -2.0 °F -22.6 °F -8.0 °F 76% 30.53 in 1.8 mi NNW 16.1 mph - 0.00 in Snow Light Snow
3:09 PM -2.9 °F -24.4 °F -9.9 °F 72% 30.52 in 1.8 mi NNW 17.3 mph - 0.00 in Snow Light Snow
3:12 PM -2.0 °F -22.6 °F -9.9 °F 69% 30.52 in 3.0 mi North 16.1 mph - 0.00 in Snow Light Snow
3:31 PM -2.9 °F -24.4 °F -11.9 °F 65% 30.49 in 10.0 mi North 17.3 mph - 0.00 in   Overcast
3:47 PM -2.2 °F -22.2 °F -11.2 °F 66% 30.52 in 1.8 mi North 15.0 mph - 0.00 in Snow Light Snow
3:53 PM -2.9 °F -22.4 °F -9.9 °F 72% 30.64 in 1.2 mi NNW 13.8 mph - 0.00 in Snow Light Snow
4:05 PM -2.9 °F -21.6 °F -9.9 °F 72% 30.54 in 0.5 mi NNW 12.7 mph - 0.00 in Snow Snow
4:26 PM -4.0 °F -23.7 °F -9.0 °F 79% 30.53 in 1.0 mi NNW 13.8 mph - 0.00 in Snow Light Snow
4:29 PM -4.0 °F -23.7 °F -9.0 °F 79% 30.53 in 0.8 mi NNW 13.8 mph - 0.00 in Snow Light Snow
4:53 PM -4.0 °F -23.7 °F -9.0 °F 79% 30.64 in 1.0 mi North 13.8 mph - 0.00 in Snow Light Snow
5:14 PM -4.0 °F -24.5 °F -9.9 °F 76% 30.53 in 3.0 mi North 15.0 mph - 0.00 in Snow Light Snow
5:23 PM -4.0 °F -23.7 °F -9.9 °F 76% 30.53 in 3.0 mi NNW 13.8 mph - 0.00 in Snow Light Snow
5:32 PM -4.0 °F -24.5 °F -9.9 °F 76% 30.53 in 2.0 mi NNW 15.0 mph - 0.00 in Snow Light Snow
5:44 PM -4.0 °F -25.2 °F -9.9 °F 76% 30.53 in 1.5 mi North 16.1 mph - 0.00 in Snow Light Snow
5:53 PM -4.0 °F -25.8 °F -9.9 °F 76% 30.64 in 2.0 mi NNW 17.3 mph - 0.00 in Snow Light Snow
5:57 PM -4.0 °F -24.5 °F -9.9 °F 76% 30.53 in 3.0 mi North 15.0 mph - 0.00 in Snow Light Snow
6:53 PM -5.1 °F -27.2 °F -13.0 °F 69% 30.67 in 10.0 mi North 17.3 mph - 0.01 in   Overcast
7:53 PM -6.0 °F -27.0 °F -15.0 °F 65% 30.69 in 7.0 mi NNW 15.0 mph - 0.00 in Snow Light Snow
8:53 PM -7.1 °F -28.4 °F -14.1 °F 72% 30.69 in 10.0 mi NNW 15.0 mph - 0.00 in   Overcast
9:53 PM -9.0 °F -27.4 °F -16.1 °F 71% 30.72 in 10.0 mi NNW 10.4 mph - N/A   Partly Cloudy
10:53 PM -9.0 °F -29.3 °F -18.0 °F 65% 30.72 in 10.0 mi NNW 12.7 mph - N/A   Clear
11:53 PM -9.9 °F -26.3 °F -20.0 °F 61% 30.71 in 10.0 mi NNW 8.1 mph - N/A   Clear